COSMOS 1275 DEB, 12773

Orbit data source: Space-Track

COSMOS 1275 DEB, 12773 is space debris in LEO originally from a launch on Thu, 04 Jun 1981 UTC launched from the Plesetsk Missile And Space Complex (PKMTR). Debris objects in space refer to the collection of defunct objects orbiting the Earth. Examples of debris include non-operational satellites, rocket bodies, and fragments generated from explosions, collisions, or faulty payload assembly.

Loading next visibility...
Identifier
12773, 1981-053DS
Orbit
LEO
Country
Flag of CISCIS
Related business
Manufacturer
Unknown
Mission
Spacecraft
Bus & Motor
Unknown
Mass
Unknown
Launch date (UTC)
1981-06-04 (44 years ago)
Launch vehicle
Unknown
Launch site
Plesetsk Missile And Space Complex (PKMTR)
Object type
Payload
Rocket body
Debris
Shape & HBR
Unknown shape, 0.1 m
Radar Cross Section
Small (<0.1 m²)

Expand to show TLE details & history
Last TLE update: 8 hours ago

TLE from 8 hours ago
0 COSMOS 1275 DEB
1 12773U 81053DS  25291.22387569  .00029218  00000-0  55529-2 0  9998
2 12773  82.9314 155.9802 0095925 284.3355  74.7214 14.61064563241478
Epoch: 2025-10-18T05:22Z
TLE epoch observation values (Epoch: 2025-10-18T05:22:22.859Z)
Latitude
Longitude
48.42699°
Altitude
675.496 km
Speed
7.528 km/s
True Right ascension
10h 23m 55s
True Declination
0° 00' 00"
Sunlit
Object was in daylight at epoch
Visualization orbit readout
Latitude
Unknown
Longitude
Unknown
Altitude
Unknown
Speed
Unknown
Apparent Right ascension
Unknown
Apparent Declination
Unknown
Sunlit
N/A
Visualization observer readout
Local Sidereal Time
08:07:02
Azimuth
Unknown
Elevation
Unknown
Doppler factor
Unknown
Orbital elements
Apogee altitude
754.54 km
Perigee altitude
618.999 km
Semi-major axis
7,064.906 km
Eccentricity
0.00959
Inclination
82.9314°
RAAN
155.9802°
Arg. of periapsis
284.3355°
True anomaly
75.78507°
Mean anomaly
74.7214°
Eccentric anomaly
75.2529°
Mean motion
3.65497 °/min
Orbital period
98.5 mins
BSTAR
0.0055529
Loading maneuver chart data...
Computing Atmospheric mass density...

Documentation

Showing up to 5 results
|